Location: Les Chemineaux
(47.3024°N, 1.5104°E)
Time: 04:17:56
(UTC+00:00)

PKM - Pass Details

Date: 19 May 2025
Orbit: 413 x 13724 km, 55.3° (Epoch: 13 June)

Event Time Altitude Azimuth Distance (km) Brightness Sun altitude
Rises 22:16:15 0° 249° (WSW) 2,480 7.2 -19.5°
Reaches altitude 10° 22:18:13 10° 256° (WSW) 1,490 6.1 -19.6°
Maximum altitude 22:20:53 51° 335° (NNW) 569 4.2 -19.8°
Drops below altitude 10° 22:24:41 10° 53° (NE) 2,110 7.0 -20.0°
Sets 22:28:04 0° 59° (ENE) 3,784 8.2 -20.2°
